Date,TemperatureHighF,TemperatureAvgF,TemperatureLowF,DewpointHighF,DewpointAvgF,DewpointLowF,HumidityHigh,HumidityAvg,HumidityLow,PressureMaxIn,PressureMinIn,WindSpeedMaxMPH,WindSpeedAvgMPH,GustSpeedMaxMPH,PrecipitationSumIn
2014-1-1,26.7,20.1,14.9,14.0,9.0,5.2,80,62,49,30.40,30.22,0,0,0,0.00
2014-1-2,19.9,11.5,0.4,15.0,7.7,-3.3,87,84,79,30.38,29.87,0,0,0,0.00
2014-1-3,13.8,4.6,-1.6,6.7,-1.7,-8.9,87,75,60,30.44,29.75,0,0,0,0.00
2014-1-4,25.4,11.8,-2.9,14.9,1.5,-9.4,81,64,40,30.53,30.32,0,0,0,0.01
2014-1-5,36.0,28.3,19.7,31.3,21.0,12.6,94,75,56,30.34,29.96,0,0,0,0.15
2014-1-6,56.2,38.3,23.9,55.6,35.3,14.6,98,89,66,29.95,29.33,0,0,0,0.97
2014-1-7,23.7,10.8,4.9,15.5,-2.1,-9.5,75,56,43,30.26,29.53,0,0,0,0.00
2014-1-8,19.1,11.4,4.2,5.7,-0.1,-7.6,67,59,52,30.50,30.25,0,0,0,0.00
2014-1-9,29.1,18.7,13.4,12.5,8.0,4.7,79,63,45,30.66,30.46,0,0,0,0.00
2014-1-10,34.9,26.9,12.9,33.8,23.7,7.8,100,88,68,30.62,30.29,0,0,0,0.02
2014-1-11,57.4,47.0,34.0,56.8,46.2,33.0,98,97,95,30.29,29.30,0,0,0,0.55
2014-1-12,52.2,40.2,32.4,51.0,32.9,25.0,96,76,64,29.99,29.30,0,0,0,0.03
2014-1-13,50.1,42.5,29.2,41.0,33.3,24.5,85,71,51,30.14,29.91,0,0,0,0.00
2014-1-14,46.0,44.2,39.8,44.0,42.2,38.8,96,93,83,29.91,29.63,0,0,0,0.64
2014-1-15,45.6,37.2,30.1,38.7,33.6,28.3,96,87,69,30.03,29.78,0,0,0,0.00
2014-1-16,37.9,34.6,30.2,35.5,32.9,28.3,97,94,88,29.95,29.86,0,0,0,0.00
2014-1-17,42.7,35.6,29.3,34.9,28.8,24.7,96,78,51,30.00,29.92,0,0,0,0.00
2014-1-18,33.8,31.5,29.9,31.9,29.1,26.7,95,91,82,29.94,29.64,0,0,0,0.01
2014-1-19,31.4,28.4,25.2,29.4,24.2,20.8,95,84,71,29.75,29.56,0,0,0,0.00
2014-1-20,39.1,32.1,20.6,29.7,23.5,8.1,85,70,57,29.89,29.52,0,0,0,0.08
2014-1-21,20.4,12.9,8.1,8.1,3.6,-2.6,85,67,46,30.06,29.89,0,0,0,0.00
2014-1-22,16.6,9.0,5.0,4.3,-0.6,-4.9,84,65,51,29.92,29.69,0,0,0,0.00
2014-1-23,18.4,9.1,1.8,3.7,-2.3,-6.2,70,60,45,30.19,29.92,0,0,0,0.02
2014-1-24,16.5,9.9,3.0,-0.2,-2.7,-6.4,70,57,43,30.30,30.07,0,0,0,0.00
2014-1-25,33.3,22.2,12.1,24.7,14.5,-0.8,91,73,55,30.07,29.36,0,0,0,0.00
2014-1-26,20.9,15.9,10.0,16.5,5.0,-3.3,84,62,46,29.89,29.38,0,0,0,0.00
2014-1-27,40.8,26.0,16.3,35.8,17.7,2.9,94,72,45,30.02,29.56,0,0,0,0.17
2014-1-28,18.2,13.5,7.5,3.3,-3.1,-8.3,57,47,40,30.32,30.02,0,0,0,0.00
2014-1-29,23.5,16.9,12.1,6.3,-0.0,-3.6,76,48,32,30.25,30.00,0,0,0,0.00
2014-1-30,28.3,18.7,8.5,12.6,4.7,-2.1,78,55,39,30.46,30.21,0,0,0,0.00
2014-1-31,38.3,30.2,18.4,23.9,18.0,9.6,89,62,42,30.23,30.05,0,0,0,0.01
2014-2-1,44.4,35.9,28.4,30.4,24.5,20.3,87,64,47,30.36,30.04,0,0,0,0.00
2014-2-2,52.8,40.3,33.9,40.2,36.0,30.4,94,85,58,30.07,29.88,0,0,0,0.04
2014-2-3,35.8,29.1,18.0,31.7,25.4,15.3,92,86,68,30.32,30.08,0,0,0,0.04
2014-2-4,32.7,23.4,12.5,23.8,18.3,10.1,94,81,64,30.49,30.31,0,0,0,0.01
2014-2-5,27.2,25.1,21.8,25.1,22.6,19.6,93,90,85,30.34,29.66,0,0,0,0.00
2014-2-6,26.5,18.4,10.2,19.6,12.1,7.6,91,77,52,30.30,29.97,0,0,0,0.22
2014-2-7,28.7,18.4,5.8,14.5,9.4,1.6,88,69,49,30.29,30.18,0,0,0,0.04
2014-2-8,26.6,19.6,10.7,12.1,6.3,1.2,77,57,42,30.32,30.15,0,0,0,0.01
2014-2-9,29.1,23.3,15.2,21.6,14.7,7.6,89,70,58,30.19,29.97,0,0,0,0.06
2014-2-10,26.6,19.2,9.2,19.0,11.9,2.3,90,74,55,30.24,29.93,0,0,0,0.05
2014-2-11,24.5,13.5,5.4,8.1,4.1,-0.2,86,67,46,30.46,30.24,0,0,0,0.01
2014-2-12,25.9,14.2,0.1,11.5,0.8,-6.1,77,58,31,30.59,30.43,0,0,0,0.04
2014-2-13,31.6,23.4,16.8,30.3,19.9,9.2,95,86,72,30.43,29.04,0,0,0,0.00
2014-2-14,33.2,30.3,26.8,30.7,27.0,22.8,96,88,78,29.76,28.89,0,0,0,0.28
2014-2-15,31.3,27.4,22.8,27.9,24.3,19.5,93,88,78,29.87,29.53,0,0,0,0.02
2014-2-16,29.7,23.1,17.6,25.9,14.2,9.9,92,69,51,30.00,29.53,0,0,0,0.02
2014-2-17,28.5,17.5,8.6,10.2,3.1,-1.0,70,54,34,30.39,30.01,0,0,0,0.06
2014-2-18,25.6,16.4,5.3,23.9,11.5,-1.8,93,81,61,30.39,29.94,0,0,0,0.00
2014-2-19,33.5,26.9,17.3,30.9,23.8,14.6,100,88,71,30.14,29.76,0,0,0,0.01
2014-2-20,47.0,37.0,29.9,32.1,29.2,23.6,95,76,42,30.23,29.88,0,0,0,0.84
2014-2-21,37.0,34.8,32.8,36.2,33.7,31.2,97,96,92,30.17,29.70,0,0,0,0.25
2014-2-22,50.6,39.9,30.5,33.4,29.3,24.9,97,70,37,29.99,29.87,0,0,0,0.00
2014-2-23,47.1,40.7,34.4,29.9,27.8,23.8,72,60,47,30.00,29.79,0,0,0,0.00
2014-2-24,38.7,29.2,20.5,29.1,15.3,7.2,69,56,45,29.97,29.77,0,0,0,0.00
2014-2-25,27.1,20.5,15.1,13.9,9.4,7.2,71,62,52,30.01,29.90,0,0,0,0.00
2014-2-26,29.0,17.0,7.9,13.3,5.0,-5.3,74,60,37,29.97,29.79,0,0,0,0.00
2014-2-27,27.5,15.5,5.4,20.4,3.8,-5.6,85,60,38,29.96,29.61,0,0,0,0.00
2014-2-28,22.2,12.7,4.5,1.0,-4.2,-7.5,62,48,28,30.47,29.96,0,0,0,0.01
2014-3-1,32.4,21.2,3.2,20.8,8.0,-5.0,73,57,36,30.48,30.12,0,0,0,0.00
2014-3-2,38.9,32.2,28.2,26.1,21.0,16.3,68,63,53,30.12,29.98,0,0,0,0.00
2014-3-3,28.1,19.0,6.6,16.6,5.5,-2.7,69,56,41,30.32,30.00,0,0,0,0.00
2014-3-4,27.8,16.5,2.5,10.7,1.4,-4.8,72,53,35,30.41,30.28,0,0,0,0.00
2014-3-5,27.4,22.4,14.1,20.7,14.4,7.0,84,71,57,30.52,30.26,0,0,0,0.00
2014-3-6,28.8,16.8,4.4,6.4,-0.1,-6.5,72,50,24,30.66,30.52,0,0,0,0.00
2014-3-7,36.7,23.9,5.0,24.2,13.5,-1.1,84,65,47,30.54,29.98,0,0,0,0.00
2014-3-8,51.8,37.4,24.0,31.3,26.3,18.9,89,66,42,29.98,29.73,0,0,0,0.00
2014-3-9,41.1,32.9,25.1,26.9,17.4,13.0,75,54,36,29.96,29.88,0,0,0,0.00
2014-3-10,41.7,33.9,26.9,29.1,22.8,12.5,81,64,50,29.91,29.64,0,0,0,0.00
2014-3-11,55.8,43.3,32.6,36.0,31.4,28.5,92,65,40,29.74,29.52,0,0,0,0.00
2014-3-12,46.5,39.5,35.3,37.5,33.3,29.8,94,79,63,29.73,29.04,0,0,0,0.57
2014-3-13,35.2,19.9,13.4,33.6,13.5,1.2,95,76,56,29.98,29.02,0,0,0,0.06
2014-3-14,34.7,21.5,10.7,26.1,9.5,-0.1,73,60,38,30.21,29.94,0,0,0,0.02
2014-3-15,54.0,41.2,33.8,39.9,31.8,22.8,93,70,47,29.94,29.70,0,0,0,0.08
2014-3-16,35.0,28.3,22.5,21.9,12.6,6.2,67,52,36,30.22,29.92,0,0,0,0.00
2014-3-17,31.7,22.0,14.2,11.3,3.7,-2.9,66,45,31,30.20,30.07,0,0,0,0.00
2014-3-18,40.8,25.9,13.7,18.5,10.0,1.3,72,52,30,30.38,30.18,0,0,0,0.00
2014-3-19,43.7,31.7,18.1,29.9,21.9,14.4,92,69,43,30.41,30.02,0,0,0,0.02
2014-3-20,48.7,39.1,32.5,41.1,32.6,24.7,96,79,51,30.02,29.65,0,0,0,0.58
2014-3-21,42.2,35.6,29.6,27.2,24.2,21.0,72,63,52,30.06,29.77,0,0,0,0.00
2014-3-22,55.2,37.0,23.6,41.9,26.1,18.5,83,66,44,30.09,29.69,0,0,0,0.01
2014-3-23,40.4,33.4,23.9,25.1,18.0,6.4,72,54,39,30.08,29.93,0,0,0,0.00
2014-3-24,33.5,23.3,13.4,7.0,3.2,0.1,58,42,28,30.19,30.06,0,0,0,0.00
2014-3-25,35.9,26.1,15.7,18.2,10.5,6.2,70,53,36,30.17,29.93,0,0,0,0.00
2014-3-26,34.2,28.3,20.9,18.6,11.7,0.9,68,50,34,30.07,29.66,0,0,0,0.00
2014-3-27,43.2,29.5,16.1,14.2,5.8,-0.2,55,38,24,30.36,30.07,0,0,0,0.00
2014-3-28,54.8,42.0,32.2,48.4,34.4,17.2,95,75,52,30.27,29.97,0,0,0,0.06
2014-3-29,54.7,44.3,38.2,48.8,40.5,36.9,95,87,67,30.26,30.00,3,1,9,0.83
2014-3-30,39.5,37.6,34.7,38.7,36.6,33.7,97,96,95,29.99,29.65,5,3,14,1.88
2014-3-31,39.1,35.6,32.6,36.5,32.8,30.0,100,90,80,30.04,29.72,5,3,9,0.70
2014-4-1,56.6,42.3,30.0,38.8,31.8,26.7,89,68,47,30.13,30.03,4,2,9,0.01
2014-4-2,59.5,45.2,34.2,39.7,32.7,25.8,81,63,44,30.14,30.02,5,2,11,0.00
2014-4-3,57.1,46.5,34.9,31.7,28.4,23.9,69,50,34,30.14,30.05,4,2,10,0.00
2014-4-4,49.1,40.3,34.4,35.0,31.3,27.0,91,71,54,30.16,29.89,4,2,6,0.15
2014-4-5,50.3,40.6,34.4,42.2,33.6,24.1,96,77,50,29.97,29.73,6,3,14,0.16
2014-4-6,58.6,43.0,29.4,28.1,25.0,22.8,77,52,28,30.21,29.97,5,2,9,0.00
2014-4-7,58.2,46.4,33.9,39.2,29.0,21.8,88,54,30,30.24,29.90,6,2,11,0.05
2014-4-8,64.3,51.5,42.2,56.8,45.8,33.4,97,82,56,29.90,29.32,10,3,16,0.41
2014-4-9,58.6,46.4,36.2,40.1,29.9,12.7,92,56,31,29.99,29.53,6,3,17,0.00
2014-4-10,60.4,45.5,32.1,35.1,24.2,14.6,65,45,24,30.17,29.99,9,4,22,0.00
2014-4-11,67.7,55.0,46.2,51.2,43.0,35.0,88,65,45,30.04,29.93,7,3,15,0.04
2014-4-12,69.2,55.2,41.2,45.9,39.6,33.2,94,61,29,30.22,29.98,6,2,11,0.06
2014-4-13,71.2,55.5,45.0,54.7,43.5,34.2,93,65,44,30.27,30.02,7,2,12,0.04
2014-4-14,73.4,64.2,51.1,59.5,54.9,45.4,89,73,56,30.03,29.86,13,7,23,0.00
2014-4-15,62.6,58.1,39.1,59.8,55.9,37.2,95,92,85,29.90,29.55,10,6,23,0.94
2014-4-16,44.6,35.9,27.9,37.0,25.6,19.3,100,68,42,30.63,29.75,6,3,12,0.32
2014-4-17,46.6,34.7,25.3,29.7,23.5,18.2,81,64,45,30.82,30.62,4,2,7,0.00
2014-4-18,45.6,36.7,26.5,34.6,29.4,23.2,90,75,59,30.67,30.27,4,1,9,0.00
2014-4-19,64.3,49.3,36.3,40.6,34.0,28.4,87,59,33,30.43,30.20,6,3,12,0.00
2014-4-20,57.5,45.1,30.9,30.7,26.3,19.8,81,51,24,30.52,30.35,4,2,12,0.00
2014-4-21,70.6,53.3,36.2,39.1,28.7,20.0,70,43,18,30.35,29.85,6,3,13,0.00
2014-4-22,73.5,58.1,46.8,50.7,43.7,38.6,85,61,35,29.85,29.48,8,4,15,0.00
2014-4-23,54.8,49.9,44.0,50.8,43.7,33.4,95,80,62,29.66,29.43,6,3,12,0.24
2014-4-24,58.6,47.6,37.9,33.4,27.9,20.5,66,47,33,29.95,29.66,8,5,19,0.00
2014-4-25,65.3,51.5,37.6,33.8,29.1,22.2,65,45,21,30.03,29.83,5,2,14,0.00
2014-4-26,49.9,44.3,41.1,44.1,39.7,31.5,95,85,50,29.88,29.78,3,1,7,0.08
2014-4-27,50.4,44.1,40.2,47.1,41.0,37.6,96,89,76,30.08,29.85,3,1,7,0.20
2014-4-28,62.1,52.3,38.6,43.7,40.4,35.4,88,65,46,30.23,30.01,4,2,10,0.00
2014-4-29,46.8,41.3,39.1,40.9,37.0,34.7,92,84,76,30.54,30.23,4,2,10,0.02
2014-4-30,43.7,40.3,38.3,41.2,38.4,36.0,96,93,87,30.55,30.18,3,1,7,0.81
2014-5-1,67.7,51.7,40.7,60.3,49.2,39.6,98,92,74,30.17,29.68,4,1,6,0.62
2014-5-2,65.4,56.6,44.2,53.2,45.1,39.7,94,68,43,29.80,29.68,7,2,15,0.01
2014-5-3,66.5,54.3,41.9,46.2,41.6,37.8,87,64,38,29.88,29.73,6,2,9,0.00
2014-5-4,60.0,52.6,47.2,47.8,41.7,37.5,83,67,49,29.73,29.57,9,4,16,0.01
2014-5-5,62.2,53.1,44.6,46.8,41.7,38.8,86,66,50,29.88,29.64,5,3,11,0.00
2014-5-6,65.3,51.8,39.3,41.7,36.6,31.0,90,59,36,30.06,29.86,5,2,11,0.00
2014-5-7,58.1,43.5,40.2,37.8,31.8,30.2,70,63,47,30.19,30.06,4,2,5,0.00
2014-5-8,68.1,56.8,42.9,55.8,44.5,32.5,87,65,39,30.20,30.08,7,2,15,0.00
2014-5-9,56.2,54.1,50.7,54.0,51.5,47.7,97,91,83,30.24,30.08,4,1,8,0.03
2014-5-10,79.0,65.5,55.7,66.0,60.7,53.7,97,86,55,30.09,29.76,7,3,14,0.45
2014-5-11,79.4,67.5,57.2,59.9,45.1,36.7,93,49,23,30.04,29.81,8,3,19,0.00
2014-5-12,87.4,71.0,52.9,58.0,47.9,40.2,69,46,26,30.11,29.97,6,2,15,0.00
2014-5-13,67.1,53.1,45.0,54.9,43.7,39.3,81,71,56,30.34,30.05,3,1,5,0.00
2014-5-14,74.4,57.7,43.3,56.9,46.3,38.9,85,68,44,30.35,30.24,4,2,7,0.00
2014-5-15,76.3,65.6,58.1,65.1,59.7,51.2,94,82,67,30.29,30.19,5,2,9,0.00
2014-5-16,67.3,63.3,61.7,63.0,61.6,60.0,98,94,84,30.19,29.97,7,3,15,0.22
2014-5-17,72.3,63.7,52.5,63.3,53.6,42.6,98,73,41,30.09,29.83,7,3,13,0.57
2014-5-18,72.4,58.7,47.2,50.8,42.7,35.8,77,57,36,30.14,30.03,3,1,10,0.00
2014-5-19,66.7,55.4,45.2,46.8,40.0,35.9,75,57,38,30.12,30.03,4,2,10,0.00
2014-5-20,77.4,62.2,48.7,50.8,44.9,41.1,78,56,33,30.05,29.94,4,1,6,0.00
2014-5-21,77.8,62.6,47.4,55.4,48.8,42.8,91,64,37,30.02,29.90,4,1,13,0.00
2014-5-22,65.7,55.9,50.6,56.5,52.1,47.2,95,87,70,29.96,29.87,4,1,7,0.17
2014-5-23,58.5,54.8,50.6,57.1,53.7,49.2,97,96,94,29.99,29.88,2,0,3,0.14
2014-5-24,64.0,55.7,49.1,55.2,51.5,47.7,97,87,63,30.07,29.96,2,0,5,0.07
2014-5-25,70.7,60.0,50.2,60.6,54.7,48.3,97,84,59,30.10,30.01,4,1,8,0.02
2014-5-26,77.9,66.9,55.4,61.1,55.9,51.3,90,69,48,30.03,29.82,5,2,14,0.00
2014-5-27,76.0,63.6,48.1,64.2,55.3,46.2,93,75,59,29.95,29.81,3,1,10,0.14
2014-5-28,49.9,47.4,42.0,49.1,46.1,40.4,97,95,94,30.24,29.89,2,1,5,0.18
2014-5-29,67.9,53.6,37.0,50.7,43.3,35.5,97,72,41,30.28,30.16,3,1,5,0.01
2014-5-30,73.0,58.3,47.2,58.5,50.7,43.8,94,77,50,30.17,29.99,3,1,9,0.23
2014-5-31,67.6,56.3,46.2,57.6,49.7,40.3,97,80,57,30.32,30.06,2,1,6,0.00
2014-6-1,77.4,61.2,45.6,54.2,46.1,40.0,93,62,31,30.36,30.24,3,1,7,0.00
2014-6-2,82.4,69.0,54.9,59.1,51.9,42.4,70,56,37,30.25,30.00,5,2,10,0.00
2014-6-3,86.1,68.6,54.3,68.4,58.5,50.9,93,72,52,30.03,29.86,5,1,10,0.00
2014-6-4,68.9,61.8,54.3,63.9,57.5,51.3,94,86,72,29.91,29.77,3,0,4,0.05
2014-6-5,62.4,59.9,56.0,61.1,58.4,54.3,97,95,90,29.80,29.66,1,0,3,0.43
2014-6-6,74.4,62.9,54.5,61.4,56.1,53.1,96,80,56,29.90,29.72,3,1,9,0.00
2014-6-7,83.9,70.5,55.3,63.6,58.4,52.1,90,68,43,29.96,29.89,2,1,9,0.00
2014-6-8,84.0,71.3,56.6,63.5,57.6,53.3,92,65,37,29.96,29.86,3,1,5,0.00
2014-6-9,76.8,68.3,62.3,64.2,58.5,55.0,87,72,53,30.00,29.90,4,2,9,0.00
2014-6-10,80.5,68.1,62.0,71.3,63.3,56.8,94,85,69,30.12,29.94,3,1,6,0.00
2014-6-11,73.3,63.3,57.7,59.1,55.5,52.0,88,76,53,30.19,30.11,2,1,5,0.00
2014-6-12,67.5,61.3,57.0,63.2,57.3,51.9,95,87,78,30.17,30.06,1,0,3,0.02
2014-6-13,63.3,61.1,59.3,62.6,60.0,58.2,100,96,95,30.06,29.81,1,0,3,0.49
2014-6-14,73.5,64.0,56.8,68.8,60.0,51.8,98,87,68,29.95,29.82,2,1,5,0.00
2014-6-15,80.3,65.7,53.4,64.1,56.2,50.5,93,73,51,30.09,29.93,3,1,6,0.00
2014-6-16,81.1,67.7,53.7,59.5,52.9,48.3,84,62,34,30.17,30.03,4,1,9,0.00
2014-6-17,86.6,73.9,61.4,72.8,63.8,54.6,88,72,51,30.07,29.86,4,2,11,0.00
2014-6-18,80.7,73.4,67.2,70.4,68.1,65.7,96,84,69,29.86,29.75,5,3,19,0.19
2014-6-19,83.6,72.1,62.4,65.1,58.5,44.2,89,65,39,29.98,29.91,2,1,10,0.00
2014-6-20,77.2,64.9,53.5,53.7,48.8,44.6,80,58,37,30.00,29.90,3,1,9,0.00
2014-6-21,75.5,62.3,48.6,54.8,49.7,43.9,90,65,42,29.99,29.89,3,0,7,0.00
2014-6-22,76.0,63.9,50.5,58.4,52.4,45.8,90,68,45,30.05,29.95,3,0,7,0.00
2014-6-23,82.9,64.7,51.5,61.5,54.3,49.0,96,72,41,30.18,30.04,5,1,9,0.00
2014-6-24,82.6,69.3,58.9,65.9,58.3,49.5,90,69,52,30.18,30.01,6,3,10,0.00
2014-6-25,86.5,74.5,63.2,72.6,66.1,55.9,91,76,61,30.02,29.86,6,4,13,0.00
2014-6-26,82.5,71.8,63.0,74.9,68.1,60.7,97,88,73,30.02,29.80,4,1,9,0.55
2014-6-27,80.2,67.2,56.6,62.8,56.8,48.9,96,72,44,30.23,30.02,2,0,7,0.00
2014-6-28,85.5,70.6,57.2,65.4,57.5,49.5,95,66,40,30.28,30.22,2,1,4,0.00
2014-6-29,85.7,72.8,59.3,66.0,60.5,54.3,89,67,46,30.27,30.11,4,2,9,0.00
2014-6-30,88.3,74.9,62.6,68.6,62.3,53.6,82,66,47,30.12,29.93,5,3,14,0.00
2014-7-1,87.3,77.2,66.8,74.1,68.5,60.7,91,75,63,29.95,29.80,6,4,11,0.00
2014-7-2,90.6,78.0,70.4,78.6,71.3,66.2,94,81,65,29.93,29.82,7,3,11,0.05
2014-7-3,89.9,77.9,68.4,77.3,72.0,66.3,96,83,62,30.04,29.88,7,2,19,0.55
2014-7-4,73.4,66.7,62.0,70.3,65.4,60.8,97,96,88,30.01,29.84,2,1,5,1.00
2014-7-5,79.4,68.2,56.8,61.5,55.6,52.1,97,67,42,30.04,29.84,5,2,11,0.05
2014-7-6,82.3,72.5,61.1,61.8,56.4,48.7,76,58,41,30.04,29.88,7,3,15,0.00
2014-7-7,86.3,75.1,66.9,71.5,66.7,61.6,93,76,58,29.89,29.71,6,3,13,0.17
2014-7-8,87.9,77.1,67.4,73.3,69.7,65.3,95,79,60,29.82,29.68,7,3,12,0.00
2014-7-9,86.2,77.3,69.1,70.1,67.1,63.9,91,72,50,29.96,29.66,6,3,14,0.04
2014-7-10,79.5,69.8,63.2,64.9,62.2,58.9,94,78,54,30.17,29.95,3,0,12,0.00
2014-7-11,81.2,70.3,62.2,65.3,60.2,56.0,85,71,51,30.25,30.17,2,0,5,0.00
2014-7-12,86.4,73.4,59.1,66.9,61.8,56.5,94,69,46,30.25,30.12,4,1,7,0.00
2014-7-13,83.5,73.8,65.6,71.2,65.5,59.7,95,76,60,30.13,29.91,6,4,14,0.07
2014-7-14,82.7,74.7,69.4,74.7,71.2,67.9,97,89,73,29.93,29.86,4,2,9,0.18
2014-7-15,84.5,75.5,71.4,77.5,72.7,69.6,96,91,71,29.88,29.76,5,2,9,0.80
2014-7-16,75.7,71.3,66.6,72.0,68.9,62.3,97,92,84,29.89,29.77,3,1,7,0.02
2014-7-17,79.5,69.4,62.2,64.9,60.8,57.5,90,75,48,30.10,29.89,4,1,7,0.00
2014-7-18,79.3,67.8,57.0,63.9,58.6,54.4,93,75,46,30.26,30.10,2,0,3,0.00
2014-7-19,75.4,67.4,59.3,67.4,61.9,56.6,93,83,64,30.30,30.24,2,0,5,0.00
2014-7-20,78.9,67.8,58.7,62.7,59.7,56.4,96,77,51,30.25,30.16,2,0,3,0.00
2014-7-21,81.3,69.1,58.0,65.7,60.9,55.9,96,77,51,30.24,30.16,2,0,4,0.00
2014-7-22,89.3,76.5,64.4,72.6,67.0,61.9,93,74,48,30.18,30.01,4,2,7,0.00
2014-7-23,90.5,78.1,68.6,76.7,70.8,65.5,91,79,60,30.01,29.76,6,3,15,0.06
2014-7-24,80.4,72.5,65.6,71.2,66.7,60.8,95,83,60,29.93,29.76,2,0,11,0.00
2014-7-25,81.6,68.7,54.6,64.3,58.9,51.5,93,73,48,30.02,29.93,2,0,5,0.00
2014-7-26,82.6,71.7,61.8,64.8,60.9,58.3,90,71,45,30.00,29.90,6,2,13,0.00
2014-7-27,77.3,70.6,65.9,73.0,67.8,63.4,97,91,79,29.92,29.67,5,2,9,1.39
2014-7-28,83.0,72.2,65.6,73.2,67.7,62.2,98,86,66,29.70,29.46,6,2,17,0.26
2014-7-29,76.0,67.3,60.0,64.4,59.4,55.8,92,77,59,29.97,29.59,3,1,11,0.00
2014-7-30,76.5,66.0,56.2,61.4,56.9,52.5,94,74,50,30.07,29.97,3,0,5,0.00
2014-7-31,79.5,67.9,58.4,63.4,59.3,55.2,94,75,53,30.18,30.07,5,2,8,0.00
2014-8-1,82.3,71.0,65.0,74.9,66.9,62.6,94,87,62,30.25,30.18,3,1,7,0.22
2014-8-2,71.5,66.6,62.1,66.8,63.7,58.5,97,90,78,30.25,30.15,2,0,7,0.05
2014-8-3,75.6,66.1,58.5,66.6,61.6,56.4,96,86,71,30.17,30.07,3,0,4,0.01
2014-8-4,83.2,72.5,62.5,71.1,66.0,60.7,96,81,58,30.08,30.02,4,1,13,0.00
2014-8-5,86.5,75.2,63.8,70.5,65.4,61.7,96,74,47,30.06,29.92,2,1,5,0.00
2014-8-6,82.1,72.5,63.4,68.4,62.9,56.3,91,73,52,29.93,29.81,2,0,4,0.00
2014-8-7,78.3,64.6,55.7,66.3,57.7,51.9,93,79,54,29.98,29.88,2,0,7,0.05
2014-8-8,81.7,67.6,55.9,63.5,58.1,53.1,93,74,47,30.07,29.98,2,0,4,0.00
2014-8-9,84.4,70.6,58.7,64.9,59.9,55.0,92,71,45,30.12,30.05,2,0,4,0.00
2014-8-10,85.4,71.7,60.2,64.4,59.6,55.9,90,68,42,30.16,30.11,2,0,3,0.00
2014-8-11,84.3,71.6,59.6,67.0,62.2,56.6,94,74,50,30.17,30.11,5,1,6,0.00
2014-8-12,81.1,70.7,63.0,66.6,62.8,58.2,95,77,50,30.15,30.02,6,2,14,0.00
2014-8-13,69.4,66.6,62.1,68.2,65.0,61.2,98,95,84,30.02,29.64,3,1,6,1.70
2014-8-14,73.1,63.8,56.2,61.0,56.1,52.0,97,78,51,29.90,29.71,4,2,10,0.01
2014-8-15,69.8,60.9,55.5,58.3,54.9,53.1,96,82,59,29.97,29.86,4,1,8,0.04
2014-8-16,75.5,65.4,55.8,59.2,55.2,52.3,89,71,52,30.02,29.93,4,2,7,0.00
2014-8-17,77.6,67.5,59.4,65.8,60.0,54.9,93,78,62,29.93,29.80,3,1,5,0.00
2014-8-18,77.1,64.5,55.6,60.7,55.2,51.2,92,74,48,29.92,29.82,2,1,5,0.00
2014-8-19,78.3,64.1,50.5,61.0,54.7,47.4,93,74,46,29.98,29.90,2,0,4,0.00
2014-8-20,82.0,67.5,54.2,66.6,58.3,51.9,96,74,49,30.08,29.98,3,0,5,0.00
2014-8-21,76.0,65.1,56.4,65.6,59.3,52.9,94,82,67,30.12,30.07,2,0,3,0.00
2014-8-22,73.4,64.5,60.1,66.0,61.3,58.1,97,90,74,30.13,30.09,2,0,2,0.14
2014-8-23,73.5,64.1,56.1,64.3,59.2,53.5,93,85,70,30.16,30.11,1,0,4,0.00
2014-8-24,79.6,65.4,53.7,65.0,58.6,51.7,97,80,56,30.18,30.14,2,0,3,0.00
2014-8-25,87.1,72.3,59.9,68.1,62.9,56.9,92,75,47,30.20,30.12,2,0,3,0.00
2014-8-26,88.1,74.9,63.6,70.1,64.7,60.8,95,73,46,30.18,30.06,3,1,9,0.00
2014-8-27,88.0,74.4,64.7,74.4,67.5,61.5,95,80,60,30.07,29.86,4,2,10,0.40
2014-8-28,70.4,69.1,67.2,69.2,67.7,65.7,96,95,95,29.87,29.84,2,0,7,0.00
2014-8-29,75.7,63.1,54.5,61.3,55.5,50.9,91,77,53,30.29,30.02,3,0,6,0.00
2014-8-30,76.8,65.3,55.0,62.0,58.3,53.3,96,80,53,30.33,30.15,5,2,15,0.00
2014-8-31,71.6,71.2,71.0,69.6,69.4,69.2,95,94,93,29.99,29.97,1,0,2,1.35
2014-9-1,85.8,75.4,69.1,74.6,70.8,68.2,98,87,64,30.02,29.93,4,1,7,0.01
2014-9-2,88.3,76.6,70.6,77.8,73.0,69.1,97,89,64,29.97,29.75,5,1,6,0.40
2014-9-3,81.2,72.6,65.1,72.0,64.1,59.8,95,76,52,30.12,29.74,3,1,6,0.00
2014-9-4,83.3,69.3,56.8,66.8,60.6,54.5,95,76,51,30.23,30.11,3,1,7,0.00
2014-9-5,85.9,76.1,65.7,74.3,68.9,62.1,92,79,61,30.19,30.00,5,2,14,0.00
2014-9-6,87.6,77.3,67.3,77.2,72.2,65.3,94,85,69,30.01,29.78,5,2,13,0.16
2014-9-7,75.8,66.5,57.5,65.1,59.3,52.4,96,80,45,30.24,29.94,2,0,4,0.06
2014-9-8,74.8,61.9,53.5,61.0,54.3,50.9,93,78,52,30.41,30.24,2,0,4,0.00
2014-9-9,70.5,60.2,52.7,58.7,53.9,50.1,94,81,61,30.39,30.23,2,0,4,0.00
2014-9-10,72.7,62.3,57.2,61.5,58.1,54.6,95,86,64,30.23,30.07,2,0,4,0.00
2014-9-11,74.1,67.2,60.4,68.9,63.3,56.1,96,88,78,30.07,29.81,5,2,13,0.00
2014-9-12,71.5,60.8,51.7,57.2,52.9,46.1,92,76,56,30.27,29.95,2,1,5,0.00
2014-9-13,63.7,55.5,47.9,57.8,51.5,44.2,95,87,79,30.32,30.14,1,0,4,0.25
2014-9-14,65.7,55.3,46.3,55.4,49.3,44.7,96,81,57,30.27,30.14,2,0,4,0.00
2014-9-15,64.6,53.4,43.6,52.6,46.5,40.9,94,79,57,30.28,30.15,2,0,5,0.00
2014-9-16,66.4,55.3,49.0,57.8,51.5,46.3,93,87,71,30.14,29.98,3,0,4,0.00
2014-9-17,69.5,57.3,47.3,53.3,49.0,45.1,95,76,47,30.05,29.97,3,1,5,0.00
2014-9-18,72.7,57.9,44.7,57.2,50.2,42.2,95,77,51,30.17,29.96,2,0,4,0.00
2014-9-19,59.5,50.4,41.0,45.5,39.6,35.8,87,68,42,30.44,30.18,2,1,6,0.00
2014-9-20,70.0,55.4,39.3,58.5,49.2,36.0,98,80,66,30.42,30.12,6,2,15,0.00
2014-9-21,76.6,66.7,58.1,72.2,64.5,55.3,98,93,83,30.12,29.58,4,1,9,0.61
2014-9-22,70.1,61.8,46.6,66.2,53.3,41.1,96,75,51,30.11,29.57,4,2,11,0.00
2014-9-23,68.3,54.5,41.3,53.1,46.1,38.6,93,75,52,30.47,30.11,4,1,11,0.00
2014-9-24,69.0,56.8,47.5,58.5,51.4,45.3,96,83,60,30.65,30.47,2,0,6,0.00
2014-9-25,59.6,53.7,48.7,54.3,50.3,46.6,95,88,79,30.58,30.28,1,0,2,0.00
2014-9-26,74.9,60.9,51.2,61.6,54.6,48.8,95,81,57,30.29,30.17,2,0,3,0.00
2014-9-27,81.3,65.6,53.6,66.2,58.5,51.9,97,80,45,30.22,30.16,1,0,2,0.00
2014-9-28,83.3,68.5,54.9,68.1,61.7,52.9,97,80,55,30.19,30.00,3,1,9,0.00
2014-9-29,77.6,65.3,57.1,67.4,60.7,54.9,95,86,66,30.06,29.95,2,0,4,0.00
2014-9-30,57.2,56.0,54.8,56.1,54.7,53.4,97,95,93,30.07,30.01,1,0,4,0.13
2014-10-1,57.2,55.9,55.3,56.4,55.1,54.5,97,97,96,30.15,30.04,1,0,5,0.81
2014-10-2,56.7,54.0,47.8,55.8,52.8,46.2,98,96,93,30.21,30.13,1,0,4,0.40
2014-10-3,64.5,53.3,45.0,56.4,49.6,43.9,97,88,71,30.18,29.93,2,0,5,0.00
2014-10-4,62.0,56.4,52.2,61.4,55.5,50.6,98,96,93,29.93,29.55,3,1,9,0.23
2014-10-5,59.7,50.8,41.8,57.0,43.8,38.5,99,79,49,29.98,29.60,4,1,8,0.01
2014-10-6,65.9,51.8,38.7,50.2,43.6,36.6,94,76,48,30.17,29.99,5,2,10,0.00
2014-10-7,72.2,60.7,48.2,62.0,55.4,46.0,97,84,60,30.17,29.99,7,2,16,0.00
2014-10-8,70.7,62.7,54.4,60.6,54.7,43.8,96,76,54,29.99,29.73,7,3,15,0.03
2014-10-9,63.8,53.2,44.3,45.5,41.4,37.4,89,66,44,30.03,29.90,5,2,15,0.00
2014-10-10,62.1,51.6,42.3,46.7,41.8,37.6,86,70,52,30.17,30.03,4,1,7,0.00
2014-10-11,49.7,45.2,40.1,47.2,42.9,38.1,96,92,86,30.17,30.10,1,0,7,0.15
2014-10-12,60.9,47.6,37.9,47.4,41.6,36.6,97,81,52,30.34,30.17,2,0,4,0.01
2014-10-13,60.7,51.6,40.6,54.3,47.0,38.2,95,85,75,30.39,30.29,3,1,8,0.00
2014-10-14,74.4,65.2,56.7,65.5,60.9,53.8,96,87,70,30.29,30.16,6,2,14,0.00
2014-10-15,78.0,69.2,62.8,69.2,65.4,61.0,95,88,70,30.17,29.97,5,2,11,0.00
2014-10-16,69.8,67.1,59.5,68.9,66.1,58.4,97,97,94,29.97,29.68,4,2,10,0.81
2014-10-17,70.7,62.5,57.5,59.2,56.6,53.3,97,83,59,29.71,29.63,6,2,13,0.00
2014-10-18,67.6,59.0,53.5,60.3,55.4,48.2,96,88,70,29.69,29.52,5,2,12,0.03
2014-10-19,57.0,49.1,39.9,48.3,39.1,28.8,86,69,52,30.00,29.63,3,2,9,0.00
2014-10-20,56.1,44.0,32.1,40.2,34.0,27.6,84,69,48,30.09,29.99,5,2,9,0.00
2014-10-21,64.3,51.9,42.8,56.8,47.9,39.9,93,86,75,30.03,29.92,2,0,3,0.00
2014-10-22,52.4,49.0,46.7,50.1,47.7,45.6,96,95,92,30.05,29.84,4,2,12,0.93
2014-10-23,51.1,48.4,45.9,50.3,47.5,45.1,98,97,96,29.87,29.64,5,3,12,1.40
2014-10-24,52.0,48.5,44.2,48.7,46.1,41.2,100,92,84,29.78,29.70,3,1,9,0.04
2014-10-25,63.4,51.7,41.4,48.4,44.2,38.9,93,77,49,29.81,29.53,3,1,10,0.00
2014-10-26,57.5,50.1,44.4,47.1,42.4,39.0,84,75,58,29.74,29.47,4,2,17,0.00
2014-10-27,61.5,50.6,44.1,45.2,41.2,38.7,84,71,52,30.05,29.74,5,2,17,0.00
2014-10-28,69.7,52.4,39.7,57.1,47.0,36.7,92,83,62,30.09,29.96,4,1,13,0.00
2014-10-29,71.2,57.1,47.5,61.8,52.9,45.2,97,86,66,29.96,29.79,5,2,7,0.08
2014-10-30,56.3,46.6,38.6,45.5,40.3,35.1,91,79,61,30.02,29.91,3,1,7,0.00
2014-10-31,52.0,44.7,38.1,42.4,38.9,34.7,93,80,68,30.07,29.99,2,0,4,0.00
2014-11-1,44.0,40.7,37.0,40.9,37.2,33.9,95,87,77,30.00,29.82,4,2,11,0.52
2014-11-2,40.9,38.0,35.3,35.8,29.6,18.1,95,73,47,29.88,29.68,6,4,20,0.00
2014-11-3,52.3,41.7,31.2,33.6,23.9,18.1,64,51,26,30.10,29.89,5,3,17,0.00
2014-11-4,62.2,52.3,40.8,43.1,34.2,28.0,74,51,37,30.16,30.01,5,2,12,0.01
2014-11-5,63.5,52.6,41.7,45.9,41.7,35.3,80,67,47,30.15,29.98,6,2,10,0.00
2014-11-6,47.4,45.0,43.2,44.3,41.1,35.9,96,86,73,30.14,29.53,2,0,6,0.39
2014-11-7,46.6,42.2,36.9,44.3,37.0,28.6,96,82,68,29.84,29.50,6,2,11,0.01
2014-11-8,47.2,38.7,29.9,31.4,27.1,23.1,77,64,46,30.00,29.83,5,2,10,0.00
2014-11-9,52.7,42.7,33.4,37.8,33.9,29.5,86,71,53,30.04,29.89,5,2,11,0.00
2014-11-10,58.4,44.5,31.3,38.6,34.4,28.4,91,70,44,30.23,30.04,4,1,9,0.00
2014-11-11,62.6,49.2,34.8,52.9,44.3,31.9,96,84,61,30.22,29.99,4,1,10,0.00
2014-11-12,64.9,53.2,39.1,56.2,48.5,32.5,97,85,65,30.04,29.86,4,1,7,0.00
2014-11-13,49.3,40.2,30.1,34.4,30.1,25.8,89,69,47,30.11,29.98,2,1,4,0.07
2014-11-14,42.7,34.5,27.9,34.6,27.8,21.9,95,78,54,30.13,29.92,4,1,9,0.14
2014-11-15,39.7,30.1,22.1,23.5,19.9,16.2,90,67,46,30.38,30.13,3,1,6,0.00
2014-11-16,39.8,32.8,23.9,28.3,23.7,17.4,79,69,50,30.41,30.15,5,2,8,0.00
2014-11-17,42.8,36.7,34.2,42.0,34.1,27.5,97,91,66,30.15,29.47,3,1,4,1.38
2014-11-18,42.6,31.7,22.5,41.5,20.3,6.8,96,64,40,29.96,29.50,7,3,18,0.00
2014-11-19,34.5,26.1,19.4,15.6,10.5,6.6,61,52,41,30.18,29.96,8,4,18,0.00
2014-11-20,45.2,34.0,27.5,25.4,19.7,12.9,68,56,40,30.09,29.78,10,3,18,0.00
2014-11-21,34.5,26.8,22.1,18.0,13.2,8.3,73,57,44,30.46,29.94,6,3,11,0.00
2014-11-22,42.0,31.5,19.5,24.8,14.6,10.0,73,52,27,30.47,30.09,9,4,16,0.00
2014-11-23,58.6,46.8,38.0,43.2,33.5,24.2,72,60,51,30.18,30.09,8,3,13,0.00
2014-11-24,62.7,54.7,39.6,61.5,51.7,33.1,100,90,72,30.10,29.59,8,4,18,0.54
2014-11-25,62.3,54.3,40.8,57.1,41.8,30.0,92,65,42,30.14,29.71,8,3,14,0.00
2014-11-26,42.7,37.8,31.7,33.5,31.4,30.2,94,78,65,30.22,29.76,2,1,14,0.06
2014-11-27,34.9,31.2,28.2,32.9,29.3,25.9,96,93,88,30.04,29.74,2,0,5,0.05
2014-11-28,33.9,27.7,22.2,26.9,23.3,17.5,92,84,72,30.25,30.02,5,2,10,0.14
2014-11-29,31.7,24.4,15.4,23.4,18.1,12.2,90,77,61,30.38,30.25,3,1,5,0.14
2014-11-30,53.0,42.1,28.9,41.9,35.9,23.7,92,79,60,30.29,30.06,6,2,13,0.81
2014-12-1,58.8,47.4,37.3,48.6,40.2,27.5,83,76,67,30.45,30.03,6,3,10,0.00
2014-12-2,37.0,32.2,29.3,30.3,24.9,19.1,93,75,61,30.72,30.42,4,1,6,0.01
2014-12-3,46.2,38.4,32.1,45.3,36.5,28.0,97,93,75,30.42,29.91,8,3,13,0.53
2014-12-4,41.7,33.5,24.4,28.2,23.7,19.7,83,68,51,30.58,30.14,5,2,12,0.00
2014-12-5,37.8,29.4,19.6,30.7,22.7,14.1,95,76,63,30.71,30.47,2,0,12,0.18
2014-12-6,38.6,35.4,32.5,37.6,34.1,30.2,96,95,92,30.46,30.17,4,1,7,1.08
2014-12-7,37.3,29.8,16.9,33.9,19.0,5.0,96,66,42,30.72,30.27,6,3,11,0.03
2014-12-8,22.9,18.9,14.1,19.9,11.3,4.4,88,72,59,30.79,30.55,3,2,7,0.00
2014-12-9,38.1,31.7,22.9,37.1,30.3,19.9,100,94,88,30.55,29.58,6,3,16,1.17
2014-12-10,37.7,36.3,35.1,36.9,35.5,34.3,97,97,96,29.61,29.47,4,2,12,0.24
2014-12-11,35.1,31.4,29.1,34.2,29.6,26.5,97,93,89,29.82,29.47,6,3,15,0.02
2014-12-12,36.6,30.7,27.1,31.0,27.1,24.6,91,86,78,29.93,29.82,4,2,12,0.03
2014-12-13,39.7,32.3,28.3,30.8,27.2,25.1,88,82,69,29.91,29.82,5,3,14,0.00
2014-12-14,43.5,33.2,27.8,33.5,28.5,24.8,90,83,67,29.95,29.82,3,2,11,0.00
2014-12-15,42.6,32.0,26.2,33.9,27.7,23.9,95,85,65,30.18,29.94,2,0,5,0.00
2014-12-16,35.8,31.5,24.8,33.4,29.3,22.3,94,91,89,30.19,29.96,2,0,3,0.13
2014-12-17,47.2,39.8,34.8,45.0,37.5,32.0,97,92,81,29.95,29.73,4,2,13,0.46
2014-12-18,39.6,36.5,33.9,32.0,30.5,28.7,88,79,72,29.90,29.74,6,3,13,0.00
2014-12-19,33.9,31.2,25.3,28.7,24.9,20.8,83,77,71,30.17,29.90,4,2,11,0.00
2014-12-20,27.0,24.2,22.8,21.2,20.3,19.4,88,85,77,30.33,30.17,3,1,5,0.00
2014-12-21,31.7,29.9,28.3,28.8,26.9,25.6,91,88,84,30.38,30.31,3,1,6,0.00
2014-12-22,38.7,33.6,30.5,34.7,30.6,27.7,94,89,83,30.43,30.31,2,1,5,0.03
2014-12-23,42.1,39.0,35.4,41.3,38.0,33.9,97,96,94,30.31,30.18,2,1,5,0.21
2014-12-24,41.0,39.1,37.3,40.2,38.3,36.4,97,97,96,30.18,29.59,3,1,5,0.44
2014-12-25,58.7,49.0,40.1,58.4,42.5,31.3,99,79,56,29.99,29.48,8,4,16,0.14
2014-12-26,47.7,40.3,34.8,34.9,31.3,29.3,82,70,59,30.20,29.99,5,2,11,0.00
2014-12-27,50.7,40.5,32.9,38.4,33.0,27.9,84,75,61,30.24,30.04,5,2,9,0.00
2014-12-28,48.4,42.9,34.7,43.6,35.8,27.6,89,76,70,30.04,29.79,5,3,16,0.01
2014-12-29,40.2,32.5,26.7,27.5,21.6,15.2,83,65,48,30.24,30.01,4,2,13,0.00
2014-12-30,29.6,23.4,17.0,15.5,7.2,-4.6,69,52,25,30.38,30.24,4,1,11,0.00
2014-12-31,28.7,19.3,14.2,13.3,7.9,6.2,76,62,41,30.35,30.15,4,1,13,0.00
2015-1-1,30.9,24.5,14.6,16.8,10.0,7.2,73,54,41,30.15,29.95,8,4,17,0.00
2015-1-2,37.5,31.6,26.9,21.1,17.7,14.5,62,56,48,30.48,29.97,6,3,13,0.00